Time,TemperatureF,DewpointF,PressureIn,WindDirection,WindDirectionDegrees,WindSpeedMPH,WindSpeedGustMPH,Humidity,HourlyPrecipIn,Conditions,Clouds,dailyrainin,SoftwareType,DateUTC
2013-02-22 00:00:00,69.4,64.7,29.90,SW,225,0.0,0.0,85,0.00,,SKC,0.00,VWS V14.00,2013-02-22 05:00:00,
2013-02-22 00:01:00,69.4,64.7,29.90,SW,225,0.0,0.0,85,0.00,,SKC,0.00,VWS V14.00,2013-02-22 05:01:00,
2013-02-22 00:06:00,69.4,64.7,29.90,SSW,202,0.0,0.0,85,0.00,,SKC,0.00,VWS V14.00,2013-02-22 05:06:00,
2013-02-22 00:11:00,69.4,64.7,29.90,SSW,202,0.0,0.0,85,0.00,,SKC,0.00,VWS V14.00,2013-02-22 05:11:00,
2013-02-22 00:16:00,69.2,64.5,29.90,SSW,202,0.0,0.0,85,0.00,,SKC,0.00,VWS V14.00,2013-02-22 05:16:00,
2013-02-22 00:21:00,69.2,64.5,29.90,South,180,0.0,0.0,85,0.00,,SKC,0.00,VWS V14.00,2013-02-22 05:21:00,
2013-02-22 00:26:00,69.0,64.3,29.90,South,180,0.0,0.0,85,0.00,,SKC,0.00,VWS V14.00,2013-02-22 05:26:00,
2013-02-22 00:31:00,69.0,64.6,29.90,South,180,0.0,0.0,86,0.00,,SKC,0.00,VWS V14.00,2013-02-22 05:31:00,
2013-02-22 00:36:00,69.0,64.6,29.90,South,180,0.0,0.0,86,0.00,,SKC,0.00,VWS V14.00,2013-02-22 05:36:00,
2013-02-22 00:41:00,69.2,64.8,29.90,South,180,0.0,0.0,86,0.00,,SKC,0.00,VWS V14.00,2013-02-22 05:41:00,
2013-02-22 00:46:00,69.0,64.6,29.90,South,180,0.0,0.0,86,0.00,,SKC,0.00,VWS V14.00,2013-02-22 05:46:00,
2013-02-22 00:52:00,69.0,64.6,29.90,South,180,0.0,0.0,86,0.00,,SKC,0.00,VWS V14.00,2013-02-22 05:52:00,
2013-02-22 00:57:00,69.0,64.6,29.90,South,180,0.0,0.0,86,0.00,,SKC,0.00,VWS V14.00,2013-02-22 05:57:00,
2013-02-22 01:02:00,69.0,64.6,29.90,SW,225,0.0,0.0,86,0.00,,SKC,0.00,VWS V14.00,2013-02-22 06:02:00,
2013-02-22 01:07:00,69.0,64.6,29.90,South,180,0.0,0.0,86,0.00,,SKC,0.00,VWS V14.00,2013-02-22 06:07:00,
2013-02-22 01:13:00,69.0,64.6,29.89,South,180,0.0,0.0,86,0.00,,SKC,0.00,VWS V14.00,2013-02-22 06:13:00,
2013-02-22 01:18:00,69.0,64.6,29.90,SSW,202,0.0,0.0,86,0.00,,SKC,0.00,VWS V14.00,2013-02-22 06:18:00,
2013-02-22 01:23:00,68.9,64.6,29.90,SSW,202,0.0,0.0,86,0.00,,SKC,0.00,VWS V14.00,2013-02-22 06:23:00,
2013-02-22 01:28:00,68.9,64.6,29.90,SSW,202,0.0,0.0,86,0.00,,SKC,0.00,VWS V14.00,2013-02-22 06:28:00,
2013-02-22 01:33:00,68.9,64.9,29.90,South,180,0.0,0.0,87,0.00,,SKC,0.00,VWS V14.00,2013-02-22 06:33:00,
2013-02-22 01:38:00,68.9,64.9,29.90,South,180,0.0,0.0,87,0.00,,SKC,0.00,VWS V14.00,2013-02-22 06:38:00,
2013-02-22 01:43:00,68.7,64.7,29.90,South,180,0.0,0.0,87,0.00,,SKC,0.00,VWS V14.00,2013-02-22 06:43:00,
2013-02-22 01:48:00,68.7,64.7,29.89,South,180,0.0,0.0,87,0.00,,SKC,0.00,VWS V14.00,2013-02-22 06:48:00,
2013-02-22 01:53:00,68.5,64.5,29.89,South,180,0.0,0.0,87,0.00,,SKC,0.00,VWS V14.00,2013-02-22 06:53:00,
2013-02-22 01:58:00,68.5,64.5,29.89,South,180,0.0,0.0,87,0.00,,SKC,0.00,VWS V14.00,2013-02-22 06:58:00,
2013-02-22 02:03:00,68.5,64.5,29.89,SSW,202,0.0,0.0,87,0.00,,SKC,0.00,VWS V14.00,2013-02-22 07:03:00,
2013-02-22 02:09:00,68.5,64.5,29.90,SSW,202,0.0,0.0,87,0.00,,SKC,0.00,VWS V14.00,2013-02-22 07:09:00,
2013-02-22 02:14:00,68.3,64.3,29.90,South,180,0.0,0.0,87,0.00,,SKC,0.00,VWS V14.00,2013-02-22 07:14:00,
2013-02-22 02:19:00,68.3,64.3,29.89,South,180,0.0,0.0,87,0.00,,SKC,0.00,VWS V14.00,2013-02-22 07:19:00,
2013-02-22 02:24:00,68.1,64.1,29.89,South,180,0.0,0.0,87,0.00,,SKC,0.00,VWS V14.00,2013-02-22 07:24:00,
2013-02-22 02:29:00,68.1,64.1,29.89,South,180,0.0,0.0,87,0.00,,SKC,0.00,VWS V14.00,2013-02-22 07:29:00,
2013-02-22 02:34:00,68.1,64.1,29.89,South,180,0.0,0.0,87,0.00,,SKC,0.00,VWS V14.00,2013-02-22 07:34:00,
2013-02-22 02:39:00,67.8,63.8,29.89,South,180,0.0,0.0,87,0.00,,SKC,0.00,VWS V14.00,2013-02-22 07:39:00,
2013-02-22 02:44:00,67.8,63.8,29.89,South,180,0.0,0.0,87,0.00,,SKC,0.00,VWS V14.00,2013-02-22 07:44:00,
2013-02-22 02:49:00,67.8,64.1,29.89,South,180,0.0,0.0,88,0.00,,SKC,0.00,VWS V14.00,2013-02-22 07:49:00,
2013-02-22 02:54:00,67.6,63.9,29.89,South,180,0.0,0.0,88,0.00,,SKC,0.00,VWS V14.00,2013-02-22 07:54:00,
2013-02-22 03:00:00,67.6,63.9,29.89,South,180,0.0,0.0,88,0.00,,SKC,0.00,VWS V14.00,2013-02-22 08:00:00,
2013-02-22 03:05:00,67.4,63.7,29.89,South,180,0.0,0.0,88,0.00,,SKC,0.00,VWS V14.00,2013-02-22 08:05:00,
2013-02-22 03:10:00,67.2,63.5,29.89,South,180,0.0,0.0,88,0.00,,SKC,0.00,VWS V14.00,2013-02-22 08:10:00,
2013-02-22 03:15:00,67.2,63.5,29.89,South,180,0.0,0.0,88,0.00,,SKC,0.00,VWS V14.00,2013-02-22 08:15:00,
2013-02-22 03:20:00,67.1,63.4,29.89,South,180,0.0,0.0,88,0.00,,SKC,0.00,VWS V14.00,2013-02-22 08:20:00,
2013-02-22 03:25:00,66.9,63.2,29.88,South,180,0.0,0.0,88,0.00,,SKC,0.00,VWS V14.00,2013-02-22 08:25:00,
2013-02-22 03:30:00,66.9,63.2,29.88,South,180,0.0,0.0,88,0.00,,SKC,0.00,VWS V14.00,2013-02-22 08:30:00,
2013-02-22 03:35:00,66.9,63.2,29.88,South,180,0.0,0.0,88,0.00,,SKC,0.00,VWS V14.00,2013-02-22 08:35:00,
2013-02-22 03:40:00,66.7,63.0,29.88,South,180,0.0,0.0,88,0.00,,SKC,0.00,VWS V14.00,2013-02-22 08:40:00,
2013-02-22 03:45:00,66.7,63.0,29.89,South,180,0.0,0.0,88,0.00,,SKC,0.00,VWS V14.00,2013-02-22 08:45:00,
2013-02-22 03:50:00,66.5,62.8,29.89,South,180,0.0,0.0,88,0.00,,SKC,0.00,VWS V14.00,2013-02-22 08:50:00,
2013-02-22 03:55:00,66.5,62.8,29.89,South,180,0.0,0.0,88,0.00,,SKC,0.00,VWS V14.00,2013-02-22 08:55:00,
2013-02-22 04:00:00,66.3,62.6,29.90,South,180,0.0,0.0,88,0.00,,SKC,0.00,VWS V14.00,2013-02-22 09:00:00,
2013-02-22 04:06:00,66.3,62.6,29.90,South,180,0.0,0.0,88,0.00,,SKC,0.00,VWS V14.00,2013-02-22 09:06:00,
2013-02-22 04:11:00,66.2,62.5,29.90,South,180,0.0,0.0,88,0.00,,SKC,0.00,VWS V14.00,2013-02-22 09:11:00,
2013-02-22 04:16:00,66.0,62.3,29.89,South,180,0.0,0.0,88,0.00,,SKC,0.00,VWS V14.00,2013-02-22 09:16:00,
2013-02-22 04:21:00,66.0,62.3,29.89,South,180,0.0,0.0,88,0.00,,SKC,0.00,VWS V14.00,2013-02-22 09:21:00,
2013-02-22 04:26:00,65.8,62.2,29.89,South,180,0.0,0.0,88,0.00,,SKC,0.00,VWS V14.00,2013-02-22 09:26:00,
2013-02-22 04:31:00,65.8,62.2,29.90,South,180,0.0,0.0,88,0.00,,SKC,0.00,VWS V14.00,2013-02-22 09:31:00,
2013-02-22 04:36:00,65.6,62.0,29.90,South,180,0.0,0.0,88,0.00,,SKC,0.00,VWS V14.00,2013-02-22 09:36:00,
2013-02-22 04:41:00,65.4,61.8,29.90,South,180,0.0,0.0,88,0.00,,SKC,0.00,VWS V14.00,2013-02-22 09:41:00,
2013-02-22 04:46:00,65.4,61.8,29.90,South,180,0.0,0.0,88,0.00,,SKC,0.00,VWS V14.00,2013-02-22 09:46:00,
2013-02-22 04:52:00,65.4,61.8,29.90,South,180,0.0,0.0,88,0.00,,SKC,0.00,VWS V14.00,2013-02-22 09:52:00,
2013-02-22 04:57:00,65.3,61.7,29.91,South,180,0.0,0.0,88,0.00,,SKC,0.00,VWS V14.00,2013-02-22 09:57:00,
2013-02-22 05:02:00,65.1,61.5,29.91,South,180,0.0,0.0,88,0.00,,SKC,0.00,VWS V14.00,2013-02-22 10:02:00,
2013-02-22 05:07:00,65.1,61.5,29.91,South,180,0.0,0.0,88,0.00,,SKC,0.00,VWS V14.00,2013-02-22 10:07:00,
2013-02-22 05:12:00,65.1,61.5,29.91,South,180,0.0,0.0,88,0.00,,SKC,0.00,VWS V14.00,2013-02-22 10:12:00,
2013-02-22 05:17:00,64.9,61.3,29.91,South,180,0.0,0.0,88,0.00,,SKC,0.00,VWS V14.00,2013-02-22 10:17:00,
2013-02-22 05:22:00,64.9,61.3,29.91,South,180,0.0,0.0,88,0.00,,SKC,0.00,VWS V14.00,2013-02-22 10:22:00,
2013-02-22 05:27:00,64.9,61.6,29.91,South,180,0.0,0.0,89,0.00,,SKC,0.00,VWS V14.00,2013-02-22 10:27:00,
2013-02-22 05:32:00,64.7,61.4,29.91,South,180,0.0,0.0,89,0.00,,SKC,0.00,VWS V14.00,2013-02-22 10:32:00,
2013-02-22 05:38:00,64.7,61.4,29.91,South,180,0.0,0.0,89,0.00,,SKC,0.00,VWS V14.00,2013-02-22 10:38:00,
2013-02-22 05:43:00,64.7,61.4,29.91,South,180,0.0,0.0,89,0.00,,SKC,0.00,VWS V14.00,2013-02-22 10:43:00,
2013-02-22 05:48:00,64.5,61.2,29.91,South,180,0.0,0.0,89,0.00,,SKC,0.00,VWS V14.00,2013-02-22 10:48:00,
2013-02-22 05:53:00,64.5,61.2,29.91,South,180,0.0,0.0,89,0.00,,SKC,0.00,VWS V14.00,2013-02-22 10:53:00,
2013-02-22 05:58:00,64.5,61.2,29.91,South,180,0.0,0.0,89,0.00,,SKC,0.00,VWS V14.00,2013-02-22 10:58:00,
2013-02-22 06:03:00,64.5,61.2,29.92,South,180,0.0,0.0,89,0.00,,SKC,0.00,VWS V14.00,2013-02-22 11:03:00,
2013-02-22 06:08:00,64.5,61.5,29.91,South,180,0.0,0.0,90,0.00,,SKC,0.00,VWS V14.00,2013-02-22 11:08:00,
2013-02-22 06:13:00,64.5,61.5,29.92,South,180,0.0,0.0,90,0.00,,SKC,0.00,VWS V14.00,2013-02-22 11:13:00,
2013-02-22 06:18:00,64.5,61.5,29.92,South,180,0.0,0.0,90,0.00,,SKC,0.00,VWS V14.00,2013-02-22 11:18:00,
2013-02-22 06:23:00,64.5,61.5,29.92,South,180,0.0,0.0,90,0.00,,SKC,0.00,VWS V14.00,2013-02-22 11:23:00,
2013-02-22 06:28:00,64.5,61.5,29.92,South,180,0.0,0.0,90,0.00,,SKC,0.00,VWS V14.00,2013-02-22 11:28:00,
2013-02-22 06:33:00,64.4,61.4,29.92,South,180,0.0,0.0,90,0.00,,SKC,0.00,VWS V14.00,2013-02-22 11:33:00,
2013-02-22 06:38:00,64.4,61.4,29.92,South,180,0.0,0.0,90,0.00,,SKC,0.00,VWS V14.00,2013-02-22 11:38:00,
2013-02-22 06:44:00,64.4,61.4,29.92,South,180,0.0,0.0,90,0.00,,SKC,0.00,VWS V14.00,2013-02-22 11:44:00,
2013-02-22 06:49:00,64.4,61.4,29.92,South,180,0.0,0.0,90,0.00,,SKC,0.00,VWS V14.00,2013-02-22 11:49:00,
2013-02-22 06:54:00,64.2,61.2,29.92,South,180,0.0,0.0,90,0.00,,SKC,0.00,VWS V14.00,2013-02-22 11:54:00,
2013-02-22 06:59:00,64.2,61.2,29.92,South,180,0.0,0.0,90,0.00,,SKC,0.00,VWS V14.00,2013-02-22 11:59:00,
2013-02-22 07:04:00,64.4,61.4,29.92,South,180,0.0,0.0,90,0.00,,SKC,0.00,VWS V14.00,2013-02-22 12:04:00,
2013-02-22 07:09:00,64.4,61.4,29.93,South,180,0.0,0.0,90,0.00,,SKC,0.00,VWS V14.00,2013-02-22 12:09:00,
2013-02-22 07:14:00,64.2,61.5,29.93,South,180,0.0,0.0,91,0.00,,SKC,0.00,VWS V14.00,2013-02-22 12:14:00,
2013-02-22 07:19:00,64.5,61.8,29.93,South,180,0.0,0.0,91,0.00,,SKC,0.00,VWS V14.00,2013-02-22 12:19:00,
2013-02-22 07:24:00,64.4,61.7,29.93,South,180,0.0,0.0,91,0.00,,SKC,0.00,VWS V14.00,2013-02-22 12:24:00,
2013-02-22 07:29:00,64.5,61.8,29.93,South,180,0.0,0.0,91,0.00,,SKC,0.00,VWS V14.00,2013-02-22 12:29:00,
2013-02-22 07:34:00,64.5,61.8,29.94,South,180,0.0,0.0,91,0.00,,SKC,0.00,VWS V14.00,2013-02-22 12:34:00,
2013-02-22 07:40:00,64.7,62.0,29.94,South,180,0.0,0.0,91,0.00,,SKC,0.00,VWS V14.00,2013-02-22 12:40:00,
2013-02-22 07:45:00,64.7,62.0,29.94,South,180,0.0,0.0,91,0.00,,SKC,0.00,VWS V14.00,2013-02-22 12:45:00,
2013-02-22 07:50:00,64.9,62.2,29.94,South,180,0.0,0.0,91,0.00,,SKC,0.00,VWS V14.00,2013-02-22 12:50:00,
2013-02-22 07:55:00,64.9,62.2,29.94,South,180,0.0,0.0,91,0.00,,SKC,0.00,VWS V14.00,2013-02-22 12:55:00,
2013-02-22 08:00:00,65.1,62.4,29.94,South,180,0.0,0.0,91,0.00,,SKC,0.00,VWS V14.00,2013-02-22 13:00:00,
2013-02-22 08:06:00,65.3,62.9,29.94,South,180,0.0,0.0,92,0.00,,SKC,0.00,VWS V14.00,2013-02-22 13:06:00,
2013-02-22 08:11:00,65.8,63.4,29.94,SSW,202,0.0,0.0,92,0.00,,SKC,0.00,VWS V14.00,2013-02-22 13:11:00,
2013-02-22 08:16:00,66.0,63.9,29.95,SSW,202,0.0,0.0,93,0.00,,SKC,0.00,VWS V14.00,2013-02-22 13:16:00,
2013-02-22 08:24:00,66.9,64.8,29.94,SSW,202,0.0,0.0,93,0.00,,SKC,0.00,VWS V14.00,2013-02-22 13:24:00,
2013-02-22 08:29:00,67.2,65.4,29.94,SSW,202,0.0,0.0,94,0.00,,SKC,0.00,VWS V14.00,2013-02-22 13:29:00,
2013-02-22 08:34:00,67.6,65.8,29.94,South,180,0.0,0.0,94,0.00,,SKC,0.00,VWS V14.00,2013-02-22 13:34:00,
2013-02-22 08:39:00,68.1,66.3,29.95,SW,225,0.0,0.0,94,0.00,,SKC,0.00,VWS V14.00,2013-02-22 13:39:00,
2013-02-22 08:46:00,68.7,66.6,29.95,ESE,112,0.0,0.0,93,0.00,,SKC,0.00,VWS V14.00,2013-02-22 13:46:00,
2013-02-22 08:51:00,69.0,66.9,29.95,South,180,0.0,0.0,93,0.00,,SKC,0.00,VWS V14.00,2013-02-22 13:51:00,
2013-02-22 08:56:00,69.4,67.0,29.94,South,180,0.0,0.0,92,0.00,,SKC,0.00,VWS V14.00,2013-02-22 13:56:00,
2013-02-22 09:02:00,70.1,67.4,29.95,SSW,202,0.0,0.0,91,0.00,,SKC,0.00,VWS V14.00,2013-02-22 14:02:00,
2013-02-22 09:14:00,71.2,67.8,29.95,SW,225,0.0,0.0,89,0.00,,SKC,0.00,VWS V14.00,2013-02-22 14:14:00,
2013-02-22 09:19:00,71.9,68.2,29.95,SW,225,0.0,0.0,88,0.00,,SKC,0.00,VWS V14.00,2013-02-22 14:19:00,
2013-02-22 09:24:00,72.6,68.5,29.95,SSE,158,0.0,0.0,87,0.00,,SKC,0.00,VWS V14.00,2013-02-22 14:24:00,
2013-02-22 09:29:00,73.0,68.2,29.94,ESE,112,0.0,0.0,85,0.00,,SKC,0.00,VWS V14.00,2013-02-22 14:29:00,
2013-02-22 09:37:00,73.7,68.2,29.95,South,180,0.0,0.0,83,0.00,,SKC,0.00,VWS V14.00,2013-02-22 14:37:00,
2013-02-22 09:42:00,74.4,68.6,29.94,SSE,158,0.0,0.0,82,0.00,,SKC,0.00,VWS V14.00,2013-02-22 14:42:00,
2013-02-22 09:48:00,74.8,68.6,29.94,SW,225,0.0,0.0,81,0.00,,SKC,0.00,VWS V14.00,2013-02-22 14:48:00,
2013-02-22 10:03:00,75.9,68.6,29.94,South,180,0.0,0.0,78,0.00,,SKC,0.00,VWS V14.00,2013-02-22 15:03:00,
2013-02-22 10:12:00,76.6,68.9,29.94,South,180,0.0,0.0,77,0.00,,SKC,0.00,VWS V14.00,2013-02-22 15:12:00,
2013-02-22 10:17:00,77.3,68.8,29.94,SW,225,0.0,0.0,75,0.00,,SKC,0.00,VWS V14.00,2013-02-22 15:17:00,
2013-02-22 10:22:00,77.7,68.8,29.95,SSW,202,0.0,0.0,74,0.00,,SKC,0.00,VWS V14.00,2013-02-22 15:22:00,
2013-02-22 10:27:00,78.0,68.7,29.94,SSW,202,0.0,0.0,73,0.00,,SKC,0.00,VWS V14.00,2013-02-22 15:27:00,
2013-02-22 10:32:00,78.4,68.2,29.95,SE,135,0.0,0.0,71,0.00,,SKC,0.00,VWS V14.00,2013-02-22 15:32:00,
2013-02-22 10:37:00,78.6,68.0,29.95,South,180,0.0,0.0,70,0.00,,SKC,0.00,VWS V14.00,2013-02-22 15:37:00,
2013-02-22 10:43:00,79.3,68.3,29.95,South,180,0.0,0.0,69,0.00,,SKC,0.00,VWS V14.00,2013-02-22 15:43:00,
2013-02-22 10:48:00,79.5,68.0,29.95,SSE,158,0.0,0.0,68,0.00,,SKC,0.00,VWS V14.00,2013-02-22 15:48:00,
2013-02-22 10:53:00,80.2,68.3,29.95,SE,135,0.0,0.0,67,0.00,,SKC,0.00,VWS V14.00,2013-02-22 15:53:00,
2013-02-22 10:58:00,80.4,68.9,29.94,South,180,0.0,0.0,68,0.00,,SKC,0.00,VWS V14.00,2013-02-22 15:58:00,
2013-02-22 11:03:00,81.1,69.1,29.94,South,180,0.0,0.0,67,0.00,,SKC,0.00,VWS V14.00,2013-02-22 16:03:00,
2013-02-22 11:09:00,81.5,69.1,29.94,SW,225,0.0,0.0,66,0.00,,SKC,0.00,VWS V14.00,2013-02-22 16:09:00,
2013-02-22 11:14:00,81.6,69.2,29.94,SW,225,0.0,0.0,66,0.00,,SKC,0.00,VWS V14.00,2013-02-22 16:14:00,
2013-02-22 11:19:00,81.8,69.3,29.94,SE,135,0.0,0.0,66,0.00,,SKC,0.00,VWS V14.00,2013-02-22 16:19:00,
2013-02-22 11:24:00,81.8,69.3,29.94,SW,225,0.0,0.0,66,0.00,,SKC,0.00,VWS V14.00,2013-02-22 16:24:00,
2013-02-22 11:29:00,81.3,68.9,29.94,South,180,0.0,0.0,66,0.00,,SKC,0.00,VWS V14.00,2013-02-22 16:29:00,
2013-02-22 11:34:00,81.5,68.6,29.93,SSW,202,0.0,0.0,65,0.00,,SKC,0.00,VWS V14.00,2013-02-22 16:34:00,
2013-02-22 11:39:00,81.6,68.7,29.93,SSE,158,0.0,0.0,65,0.00,,SKC,0.00,VWS V14.00,2013-02-22 16:39:00,
2013-02-22 11:44:00,82.2,68.8,29.93,SSW,202,0.0,0.0,64,0.00,,SKC,0.00,VWS V14.00,2013-02-22 16:44:00,
2013-02-22 11:49:00,82.5,68.6,29.93,SW,225,0.0,0.0,63,0.00,,SKC,0.00,VWS V14.00,2013-02-22 16:49:00,
2013-02-22 11:54:00,82.9,68.6,29.93,South,180,0.0,0.0,62,0.00,,SKC,0.00,VWS V14.00,2013-02-22 16:54:00,
2013-02-22 11:59:00,83.4,68.6,29.93,South,180,0.0,0.0,61,0.00,,SKC,0.00,VWS V14.00,2013-02-22 16:59:00,
2013-02-22 12:05:00,83.8,68.4,29.93,ESE,112,0.0,0.0,60,0.00,,SKC,0.00,VWS V14.00,2013-02-22 17:05:00,
2013-02-22 12:10:00,84.2,68.3,29.93,SSE,158,0.0,0.0,59,0.00,,SKC,0.00,VWS V14.00,2013-02-22 17:10:00,
2013-02-22 12:15:00,84.3,68.9,29.92,South,180,0.0,0.0,60,0.00,,SKC,0.00,VWS V14.00,2013-02-22 17:15:00,
2013-02-22 12:20:00,84.0,68.6,29.92,SSE,158,0.0,0.0,60,0.00,,SKC,0.00,VWS V14.00,2013-02-22 17:20:00,
2013-02-22 12:25:00,84.0,69.1,29.92,SSW,202,0.0,0.0,61,0.00,,SKC,0.00,VWS V14.00,2013-02-22 17:25:00,
2013-02-22 12:30:00,83.4,69.5,29.92,South,180,0.0,0.0,63,0.00,,SKC,0.00,VWS V14.00,2013-02-22 17:30:00,
2013-02-22 12:35:00,83.1,69.2,29.92,SW,225,0.0,0.0,63,0.00,,SKC,0.00,VWS V14.00,2013-02-22 17:35:00,
2013-02-22 12:40:00,83.3,69.4,29.91,SW,225,0.0,0.0,63,0.00,,SKC,0.00,VWS V14.00,2013-02-22 17:40:00,
2013-02-22 12:45:00,84.0,69.6,29.91,SSW,202,0.0,0.0,62,0.00,,SKC,0.00,VWS V14.00,2013-02-22 17:45:00,
2013-02-22 12:50:00,84.5,69.1,29.90,SSW,202,0.0,0.0,60,0.00,,SKC,0.00,VWS V14.00,2013-02-22 17:50:00,
2013-02-22 12:55:00,85.2,69.3,29.91,SW,225,0.0,0.0,59,0.00,,SKC,0.00,VWS V14.00,2013-02-22 17:55:00,
2013-02-22 13:00:00,85.6,69.6,29.90,SW,225,0.0,0.0,59,0.00,,SKC,0.00,VWS V14.00,2013-02-22 18:00:00,
2013-02-22 13:05:00,86.0,69.5,29.90,SW,225,0.0,0.0,58,0.00,,SKC,0.00,VWS V14.00,2013-02-22 18:05:00,
2013-02-22 13:10:00,86.1,69.6,29.90,SSE,158,0.0,0.0,58,0.00,,SKC,0.00,VWS V14.00,2013-02-22 18:10:00,
2013-02-22 13:16:00,86.7,69.7,29.90,South,180,0.0,0.0,57,0.00,,SKC,0.00,VWS V14.00,2013-02-22 18:16:00,
2013-02-22 13:21:00,86.7,69.1,29.90,South,180,0.0,0.0,56,0.00,,SKC,0.00,VWS V14.00,2013-02-22 18:21:00,
2013-02-22 13:26:00,87.0,68.4,29.89,SW,225,0.0,0.0,54,0.00,,SKC,0.00,VWS V14.00,2013-02-22 18:26:00,
2013-02-22 13:31:00,87.4,68.7,29.89,South,180,0.0,0.0,54,0.00,,SKC,0.00,VWS V14.00,2013-02-22 18:31:00,
2013-02-22 13:36:00,87.4,68.2,29.89,ESE,112,0.0,0.0,53,0.00,,SKC,0.00,VWS V14.00,2013-02-22 18:36:00,
2013-02-22 13:41:00,87.4,67.6,29.89,South,180,0.0,0.0,52,0.00,,SKC,0.00,VWS V14.00,2013-02-22 18:41:00,
2013-02-22 13:46:00,87.6,67.8,29.89,South,180,0.0,0.0,52,0.00,,SKC,0.00,VWS V14.00,2013-02-22 18:46:00,
2013-02-22 13:51:00,87.9,67.5,29.89,SW,225,0.0,0.0,51,0.00,,SKC,0.00,VWS V14.00,2013-02-22 18:51:00,
2013-02-22 13:56:00,87.9,67.5,29.88,SSE,158,0.0,0.0,51,0.00,,SKC,0.00,VWS V14.00,2013-02-22 18:56:00,
2013-02-22 14:01:00,88.3,67.9,29.88,South,180,0.0,0.0,51,0.00,,SKC,0.00,VWS V14.00,2013-02-22 19:01:00,
2013-02-22 14:06:00,88.5,67.5,29.87,South,180,0.0,0.0,50,0.00,,SKC,0.00,VWS V14.00,2013-02-22 19:06:00,
2013-02-22 14:11:00,88.7,67.1,29.87,SE,135,0.0,0.0,49,0.00,,SKC,0.00,VWS V14.00,2013-02-22 19:11:00,
2013-02-22 14:17:00,88.7,67.7,29.87,SE,135,0.0,0.0,50,0.00,,SKC,0.00,VWS V14.00,2013-02-22 19:17:00,
2013-02-22 14:22:00,88.8,67.2,29.87,SW,225,0.0,0.0,49,0.00,,SKC,0.00,VWS V14.00,2013-02-22 19:22:00,
2013-02-22 14:27:00,88.7,67.1,29.87,SW,225,0.0,0.0,49,0.00,,SKC,0.00,VWS V14.00,2013-02-22 19:27:00,
2013-02-22 14:32:00,88.7,66.5,29.87,SW,225,0.0,0.0,48,0.00,,SKC,0.00,VWS V14.00,2013-02-22 19:32:00,
2013-02-22 14:37:00,88.7,66.5,29.87,SW,225,0.0,0.0,48,0.00,,SKC,0.00,VWS V14.00,2013-02-22 19:37:00,
2013-02-22 14:42:00,88.7,65.9,29.87,SW,225,0.0,0.0,47,0.00,,SKC,0.00,VWS V14.00,2013-02-22 19:42:00,
2013-02-22 14:47:00,88.8,66.6,29.87,SSE,158,0.0,0.0,48,0.00,,SKC,0.00,VWS V14.00,2013-02-22 19:47:00,
2013-02-22 14:52:00,88.8,66.0,29.87,SW,225,0.0,0.0,47,0.00,,SKC,0.00,VWS V14.00,2013-02-22 19:52:00,
2013-02-22 14:58:00,89.0,66.2,29.86,SW,225,0.0,0.0,47,0.00,,SKC,0.00,VWS V14.00,2013-02-22 19:58:00,
2013-02-22 15:03:00,88.8,66.0,29.86,South,180,0.0,0.0,47,0.00,,SKC,0.00,VWS V14.00,2013-02-22 20:03:00,
2013-02-22 15:08:00,89.0,66.8,29.86,SSW,202,0.0,0.0,48,0.00,,SKC,0.00,VWS V14.00,2013-02-22 20:08:00,
2013-02-22 15:13:00,88.8,66.0,29.86,SSW,202,0.0,0.0,47,0.00,,SKC,0.00,VWS V14.00,2013-02-22 20:13:00,
2013-02-22 15:18:00,88.5,66.3,29.86,ESE,112,0.0,0.0,48,0.00,,SKC,0.00,VWS V14.00,2013-02-22 20:18:00,
2013-02-22 15:23:00,88.3,66.1,29.86,South,180,0.0,0.0,48,0.00,,SKC,0.00,VWS V14.00,2013-02-22 20:23:00,
2013-02-22 15:28:00,88.5,65.7,29.86,SW,225,0.0,0.0,47,0.00,,SKC,0.00,VWS V14.00,2013-02-22 20:28:00,
2013-02-22 15:34:00,88.5,65.7,29.86,South,180,0.0,0.0,47,0.00,,SKC,0.00,VWS V14.00,2013-02-22 20:34:00,
2013-02-22 15:39:00,87.9,64.6,29.85,SSW,202,0.0,0.0,46,0.00,,SKC,0.00,VWS V14.00,2013-02-22 20:39:00,
2013-02-22 15:44:00,87.9,65.2,29.86,SSW,202,0.0,0.0,47,0.00,,SKC,0.00,VWS V14.00,2013-02-22 20:44:00,
2013-02-22 15:49:00,87.9,65.2,29.85,South,180,0.0,0.0,47,0.00,,SKC,0.00,VWS V14.00,2013-02-22 20:49:00,
2013-02-22 15:54:00,87.9,65.2,29.86,SW,225,0.0,0.0,47,0.00,,SKC,0.00,VWS V14.00,2013-02-22 20:54:00,
2013-02-22 15:59:00,87.6,64.9,29.85,SSW,202,0.0,0.0,47,0.00,,SKC,0.00,VWS V14.00,2013-02-22 20:59:00,
2013-02-22 16:04:00,87.4,65.3,29.85,SSW,202,0.0,0.0,48,0.00,,SKC,0.00,VWS V14.00,2013-02-22 21:04:00,
2013-02-22 16:10:00,87.0,65.6,29.85,SSW,202,0.0,0.0,49,0.00,,SKC,0.00,VWS V14.00,2013-02-22 21:10:00,
2013-02-22 16:15:00,87.0,65.0,29.86,SSW,202,0.0,0.0,48,0.00,,SKC,0.00,VWS V14.00,2013-02-22 21:15:00,
2013-02-22 16:20:00,86.7,64.7,29.86,SSW,202,0.0,0.0,48,0.00,,SKC,0.00,VWS V14.00,2013-02-22 21:20:00,
2013-02-22 16:25:00,86.7,64.1,29.86,SW,225,0.0,0.0,47,0.00,,SKC,0.00,VWS V14.00,2013-02-22 21:25:00,
2013-02-22 16:30:00,86.5,62.7,29.85,SSW,202,0.0,0.0,45,0.00,,SKC,0.00,VWS V14.00,2013-02-22 21:30:00,
2013-02-22 16:35:00,86.3,63.1,29.86,SSE,158,0.0,0.0,46,0.00,,SKC,0.00,VWS V14.00,2013-02-22 21:35:00,
2013-02-22 16:40:00,86.1,64.1,29.86,South,180,0.0,0.0,48,0.00,,SKC,0.00,VWS V14.00,2013-02-22 21:40:00,
2013-02-22 16:45:00,86.1,64.1,29.85,SSW,202,0.0,0.0,48,0.00,,SKC,0.00,VWS V14.00,2013-02-22 21:45:00,
2013-02-22 16:50:00,86.0,64.0,29.85,SW,225,0.0,0.0,48,0.00,,SKC,0.00,VWS V14.00,2013-02-22 21:50:00,
2013-02-22 16:55:00,85.8,63.9,29.85,SSW,202,0.0,0.0,48,0.00,,SKC,0.00,VWS V14.00,2013-02-22 21:55:00,
2013-02-22 17:00:00,85.8,64.4,29.85,South,180,0.0,0.0,49,0.00,,SKC,0.00,VWS V14.00,2013-02-22 22:00:00,
2013-02-22 17:05:00,85.6,67.1,29.85,ESE,112,0.0,0.0,54,0.00,,SKC,0.00,VWS V14.00,2013-02-22 22:05:00,
2013-02-22 17:11:00,85.2,69.3,29.86,SSW,202,0.0,0.0,59,0.00,,SKC,0.00,VWS V14.00,2013-02-22 22:11:00,
2013-02-22 17:16:00,84.9,69.5,29.85,SSE,158,0.0,0.0,60,0.00,,SKC,0.00,VWS V14.00,2013-02-22 22:16:00,
2013-02-22 17:21:00,84.7,70.2,29.86,ENE,68,0.0,0.0,62,0.00,,SKC,0.00,VWS V14.00,2013-02-22 22:21:00,
2013-02-22 17:26:00,84.0,70.1,29.86,SE,135,0.0,0.0,63,0.00,,SKC,0.00,VWS V14.00,2013-02-22 22:26:00,
2013-02-22 17:31:00,83.4,69.9,29.85,ESE,112,0.0,0.0,64,0.00,,SKC,0.00,VWS V14.00,2013-02-22 22:31:00,
2013-02-22 17:36:00,83.1,69.7,29.86,SE,135,0.0,0.0,64,0.00,,SKC,0.00,VWS V14.00,2013-02-22 22:36:00,
2013-02-22 17:41:00,82.9,69.9,29.86,NE,45,0.0,0.0,65,0.00,,SKC,0.00,VWS V14.00,2013-02-22 22:41:00,
2013-02-22 17:46:00,82.2,69.7,29.86,SSW,202,0.0,0.0,66,0.00,,SKC,0.00,VWS V14.00,2013-02-22 22:46:00,
2013-02-22 17:51:00,82.0,70.0,29.86,NE,45,0.0,0.0,67,0.00,,SKC,0.00,VWS V14.00,2013-02-22 22:51:00,
2013-02-22 17:56:00,81.5,69.9,29.86,ENE,68,0.0,0.0,68,0.00,,SKC,0.00,VWS V14.00,2013-02-22 22:56:00,
2013-02-22 18:01:00,81.1,69.6,29.86,ESE,112,0.0,0.0,68,0.00,,SKC,0.00,VWS V14.00,2013-02-22 23:01:00,
2013-02-22 18:06:00,80.7,69.6,29.86,NE,45,0.0,0.0,69,0.00,,SKC,0.00,VWS V14.00,2013-02-22 23:06:00,
2013-02-22 18:12:00,80.2,69.5,29.86,ESE,112,0.0,0.0,70,0.00,,SKC,0.00,VWS V14.00,2013-02-22 23:12:00,
2013-02-22 18:17:00,79.8,69.6,29.87,East,90,0.0,0.0,71,0.00,,SKC,0.00,VWS V14.00,2013-02-22 23:17:00,
2013-02-22 18:22:00,79.3,69.1,29.87,East,90,0.0,0.0,71,0.00,,SKC,0.00,VWS V14.00,2013-02-22 23:22:00,
2013-02-22 18:27:00,78.9,69.1,29.87,ENE,68,0.0,0.0,72,0.00,,SKC,0.00,VWS V14.00,2013-02-22 23:27:00,
2013-02-22 18:32:00,78.6,69.2,29.87,East,90,0.0,0.0,73,0.00,,SKC,0.00,VWS V14.00,2013-02-22 23:32:00,
2013-02-22 18:37:00,78.2,69.2,29.87,ESE,112,0.0,0.0,74,0.00,,SKC,0.00,VWS V14.00,2013-02-22 23:37:00,
2013-02-22 18:42:00,78.0,69.1,29.87,NNE,22,0.0,0.0,74,0.00,,SKC,0.00,VWS V14.00,2013-02-22 23:42:00,
2013-02-22 18:48:00,77.7,68.8,29.88,ESE,112,0.0,0.0,74,0.00,,SKC,0.00,VWS V14.00,2013-02-22 23:48:00,
2013-02-22 18:53:00,77.5,69.0,29.88,SE,135,0.0,0.0,75,0.00,,SKC,0.00,VWS V14.00,2013-02-22 23:53:00,
2013-02-22 18:58:00,77.1,69.0,29.88,ENE,68,0.0,0.0,76,0.00,,SKC,0.00,VWS V14.00,2013-02-22 23:58:00,
2013-02-22 19:03:00,76.8,69.1,29.88,East,90,0.0,0.0,77,0.00,,SKC,0.00,VWS V14.00,2013-02-23 00:03:00,
2013-02-22 19:08:00,76.6,68.9,29.88,SE,135,0.0,0.0,77,0.00,,SKC,0.00,VWS V14.00,2013-02-23 00:08:00,
2013-02-22 19:13:00,76.6,69.2,29.88,ENE,68,0.0,0.0,78,0.00,,SKC,0.00,VWS V14.00,2013-02-23 00:13:00,
2013-02-22 19:18:00,76.1,68.8,29.88,SSE,158,0.0,0.0,78,0.00,,SKC,0.00,VWS V14.00,2013-02-23 00:18:00,
2013-02-22 19:23:00,75.9,68.6,29.89,SE,135,0.0,0.0,78,0.00,,SKC,0.00,VWS V14.00,2013-02-23 00:23:00,
2013-02-22 19:28:00,75.7,68.7,29.89,SE,135,0.0,0.0,79,0.00,,SKC,0.00,VWS V14.00,2013-02-23 00:28:00,
2013-02-22 19:33:00,75.3,68.7,29.89,NE,45,0.0,0.0,80,0.00,,SKC,0.00,VWS V14.00,2013-02-23 00:33:00,
2013-02-22 19:38:00,75.2,68.6,29.89,ENE,68,0.0,0.0,80,0.00,,SKC,0.00,VWS V14.00,2013-02-23 00:38:00,
2013-02-22 19:44:00,75.0,68.4,29.89,ENE,68,0.0,0.0,80,0.00,,SKC,0.00,VWS V14.00,2013-02-23 00:44:00,
2013-02-22 19:49:00,74.8,68.6,29.89,NE,45,0.0,0.0,81,0.00,,SKC,0.00,VWS V14.00,2013-02-23 00:49:00,
2013-02-22 19:54:00,74.4,68.2,29.90,ENE,68,0.0,0.0,81,0.00,,SKC,0.00,VWS V14.00,2013-02-23 00:54:00,
2013-02-22 19:59:00,74.4,68.2,29.90,ESE,112,0.0,0.0,81,0.00,,SKC,0.00,VWS V14.00,2013-02-23 00:59:00,
2013-02-22 20:04:00,74.1,68.3,29.89,North,0,0.0,0.0,82,0.00,,SKC,0.00,VWS V14.00,2013-02-23 01:04:00,
2013-02-22 20:09:00,74.1,68.3,29.89,ESE,112,0.0,0.0,82,0.00,,SKC,0.00,VWS V14.00,2013-02-23 01:09:00,
2013-02-22 20:14:00,73.9,68.4,29.89,SE,135,0.0,0.0,83,0.00,,SKC,0.00,VWS V14.00,2013-02-23 01:14:00,
2013-02-22 20:19:00,73.7,68.2,29.90,SE,135,0.0,0.0,83,0.00,,SKC,0.00,VWS V14.00,2013-02-23 01:19:00,
2013-02-22 20:24:00,73.7,68.2,29.90,ENE,68,0.0,0.0,83,0.00,,SKC,0.00,VWS V14.00,2013-02-23 01:24:00,
2013-02-22 20:30:00,73.5,68.0,29.90,NNE,22,0.0,0.0,83,0.00,,SKC,0.00,VWS V14.00,2013-02-23 01:30:00,
2013-02-22 20:35:00,73.5,68.4,29.90,South,180,0.0,0.0,84,0.00,,SKC,0.00,VWS V14.00,2013-02-23 01:35:00,
2013-02-22 20:40:00,73.4,68.3,29.90,SE,135,0.0,0.0,84,0.00,,SKC,0.00,VWS V14.00,2013-02-23 01:40:00,
2013-02-22 20:45:00,73.2,68.1,29.90,ENE,68,0.0,0.0,84,0.00,,SKC,0.00,VWS V14.00,2013-02-23 01:45:00,
2013-02-22 20:51:00,73.0,67.9,29.90,SSE,158,0.0,0.0,84,0.00,,SKC,0.00,VWS V14.00,2013-02-23 01:51:00,
2013-02-22 20:56:00,73.0,68.2,29.90,SSW,202,0.0,0.0,85,0.00,,SKC,0.00,VWS V14.00,2013-02-23 01:56:00,
2013-02-22 21:02:00,73.0,68.2,29.90,South,180,0.0,0.0,85,0.00,,SKC,0.00,VWS V14.00,2013-02-23 02:02:00,
2013-02-22 21:07:00,73.0,68.2,29.90,SW,225,0.0,0.0,85,0.00,,SKC,0.00,VWS V14.00,2013-02-23 02:07:00,
2013-02-22 21:12:00,72.8,68.0,29.90,East,90,0.0,0.0,85,0.00,,SKC,0.00,VWS V14.00,2013-02-23 02:12:00,
2013-02-22 21:17:00,72.6,67.8,29.90,South,180,0.0,0.0,85,0.00,,SKC,0.00,VWS V14.00,2013-02-23 02:17:00,
2013-02-22 21:22:00,72.6,67.8,29.90,ESE,112,0.0,0.0,85,0.00,,SKC,0.00,VWS V14.00,2013-02-23 02:22:00,
2013-02-22 21:27:00,72.6,67.8,29.90,South,180,0.0,0.0,85,0.00,,SKC,0.00,VWS V14.00,2013-02-23 02:27:00,
2013-02-22 21:32:00,72.6,68.2,29.90,SSE,158,0.0,0.0,86,0.00,,SKC,0.00,VWS V14.00,2013-02-23 02:32:00,
2013-02-22 21:37:00,72.6,68.2,29.90,SE,135,0.0,0.0,86,0.00,,SKC,0.00,VWS V14.00,2013-02-23 02:37:00,
2013-02-22 21:42:00,72.5,68.1,29.90,SE,135,0.0,0.0,86,0.00,,SKC,0.00,VWS V14.00,2013-02-23 02:42:00,
2013-02-22 21:47:00,72.6,68.2,29.90,NE,45,0.0,0.0,86,0.00,,SKC,0.00,VWS V14.00,2013-02-23 02:47:00,
2013-02-22 21:53:00,72.6,68.2,29.90,SSE,158,0.0,0.0,86,0.00,,SKC,0.00,VWS V14.00,2013-02-23 02:53:00,
2013-02-22 21:58:00,72.6,68.2,29.90,ESE,112,0.0,0.0,86,0.00,,SKC,0.00,VWS V14.00,2013-02-23 02:58:00,
2013-02-22 22:03:00,72.6,68.2,29.90,SSE,158,0.0,0.0,86,0.00,,SKC,0.00,VWS V14.00,2013-02-23 03:03:00,
2013-02-22 22:08:00,72.6,68.2,29.90,SSE,158,0.0,0.0,86,0.00,,SKC,0.00,VWS V14.00,2013-02-23 03:08:00,
2013-02-22 22:13:00,72.6,68.2,29.90,SE,135,0.0,0.0,86,0.00,,SKC,0.00,VWS V14.00,2013-02-23 03:13:00,
2013-02-22 22:18:00,72.6,68.2,29.90,SE,135,0.0,0.0,86,0.00,,SKC,0.00,VWS V14.00,2013-02-23 03:18:00,
2013-02-22 22:23:00,72.6,68.5,29.90,SE,135,0.0,0.0,87,0.00,,SKC,0.00,VWS V14.00,2013-02-23 03:23:00,
2013-02-22 22:28:00,72.6,68.5,29.91,SSE,158,0.0,0.0,87,0.00,,SKC,0.00,VWS V14.00,2013-02-23 03:28:00,
2013-02-22 22:33:00,72.6,68.5,29.90,South,180,0.0,0.0,87,0.00,,SKC,0.00,VWS V14.00,2013-02-23 03:33:00,
2013-02-22 22:38:00,72.5,68.4,29.90,SSE,158,0.0,0.0,87,0.00,,SKC,0.00,VWS V14.00,2013-02-23 03:38:00,
2013-02-22 22:44:00,72.5,68.4,29.90,SSW,202,0.0,0.0,87,0.00,,SKC,0.00,VWS V14.00,2013-02-23 03:44:00,
2013-02-22 22:49:00,72.5,68.4,29.89,SSW,202,0.0,0.0,87,0.00,,SKC,0.00,VWS V14.00,2013-02-23 03:49:00,
2013-02-22 22:54:00,72.5,68.4,29.89,SSE,158,0.0,0.0,87,0.00,,SKC,0.00,VWS V14.00,2013-02-23 03:54:00,
2013-02-22 22:59:00,72.3,68.2,29.89,SSE,158,0.0,0.0,87,0.00,,SKC,0.00,VWS V14.00,2013-02-23 03:59:00,
2013-02-22 23:04:00,72.3,68.2,29.89,SSE,158,0.0,0.0,87,0.00,,SKC,0.00,VWS V14.00,2013-02-23 04:04:00,
2013-02-22 23:09:00,72.3,68.2,29.89,SSW,202,0.0,0.0,87,0.00,,SKC,0.00,VWS V14.00,2013-02-23 04:09:00,
2013-02-22 23:14:00,72.3,68.2,29.89,South,180,0.0,0.0,87,0.00,,SKC,0.00,VWS V14.00,2013-02-23 04:14:00,
2013-02-22 23:19:00,72.1,68.0,29.89,SSE,158,0.0,0.0,87,0.00,,SKC,0.00,VWS V14.00,2013-02-23 04:19:00,
2013-02-22 23:24:00,72.1,68.0,29.89,SE,135,0.0,0.0,87,0.00,,SKC,0.00,VWS V14.00,2013-02-23 04:24:00,
2013-02-22 23:29:00,72.1,68.0,29.89,SE,135,0.0,0.0,87,0.00,,SKC,0.00,VWS V14.00,2013-02-23 04:29:00,
2013-02-22 23:35:00,72.1,68.0,29.88,SE,135,0.0,0.0,87,0.00,,SKC,0.00,VWS V14.00,2013-02-23 04:35:00,
2013-02-22 23:40:00,71.9,67.8,29.88,SE,135,0.0,0.0,87,0.00,,SKC,0.00,VWS V14.00,2013-02-23 04:40:00,
2013-02-22 23:45:00,71.9,67.8,29.88,SE,135,0.0,0.0,87,0.00,,SKC,0.00,VWS V14.00,2013-02-23 04:45:00,
2013-02-22 23:50:00,71.9,67.8,29.88,SE,135,0.0,0.0,87,0.00,,SKC,0.00,VWS V14.00,2013-02-23 04:50:00,
2013-02-22 23:55:00,71.7,67.6,29.88,SE,135,0.0,0.0,87,0.00,,SKC,0.00,VWS V14.00,2013-02-23 04:55:00,